This demonstration page uses our WeatherBlox Daily Observations layout. Learn more.

Left ArrowRight Arrow

Hourly Observations for August 8, 2015

Temp ( °F °C ) Dew Point ( °F °C ) Humidity (%) Winds ( mph kmh ) Pressure ( in mb ) Visibility ( mi km ) Precip ( " mm )
12:15 am 00:15 Cloudy with Thunderstorms 64 18 59 15 83 83 E 8 13 29.91 1013 10 16 0.00 0.00
12:35 am 00:35 Cloudy with Nearby Thunderstorms 64 18 59 15 83 83 NE 9 15 29.91 1013 10 16 0.17 4.32
12:55 am 00:55 Cloudy with Thunderstorms 64 18 59 15 83 83 NE 8 13 29.91 1013 10 16 0.26 6.60
1:15 am 01:15 Cloudy 64 18 61 16 88 88 N 8 13 29.91 1013 10 16 0.00 0.00
1:35 am 01:35 Cloudy 64 18 61 16 88 88 E 7 11 29.91 1013 8 13 0.11 2.79
1:55 am 01:55 Mostly Cloudy 64 18 61 16 88 88 NE 3 6 29.88 1012 10 16 0.13 3.30
2:15 am 02:15 Cloudy 64 18 61 16 88 88 N 7 11 29.88 1012 10 16 0.00 0.00
2:35 am 02:35 Cloudy 64 18 63 17 94 94 S 8 13 29.91 1013 10 16 0.02 0.51
2:55 am 02:55 Cloudy 66 19 63 17 88 88 SSE 10 17 29.85 1011 10 16 0.03 0.76
3:15 am 03:15 Cloudy with Nearby Thunderstorms 66 19 64 18 94 94 SSE 10 17 29.85 1011 10 16 0.00 0.00
3:35 am 03:35 Cloudy with Nearby Thunderstorms 66 19 64 18 94 94 SSE 12 19 29.83 1010 10 16 0.03 0.76
3:55 am 03:55 Cloudy 66 19 64 18 94 94 SE 8 13 29.83 1010 8 13 0.06 1.52
4:15 am 04:15 Partly Cloudy 66 19 64 18 94 94 ESE 13 20 29.80 1009 10 16 0.00 0.00
4:35 am 04:35 Clear 66 19 63 17 88 88 E 10 17 29.77 1008 10 16 0.01 0.25
4:55 am 04:55 Clear 66 19 63 17 88 88 ESE 8 13 29.77 1008 10 16 0.01 0.25
5:15 am 05:15 Clear 66 19 63 17 88 88 SE 7 11 29.77 1008 10 16 0.00 0.00
5:35 am 05:35 Clear 66 19 63 17 88 88 SE 8 13 29.77 1008 10 16 0.00 0.00
5:55 am 05:55 Clear 66 19 63 17 88 88 SE 7 11 29.77 1008 10 16 0.00 0.00
6:15 am 06:15 Mostly Clear 66 19 63 17 88 88 SE 7 11 29.80 1009 10 16 0.00 0.00
6:35 am 06:35 Mostly Clear 66 19 63 17 88 88 Calm 29.80 1009 10 16 0.00 0.00
6:55 am 06:55 Sunny 66 19 63 17 88 88 Calm 29.80 1009 10 16 0.00 0.00
7:15 am 07:15 Sunny 66 19 63 17 88 88 Calm 29.80 1009 10 16 0.00 0.00
7:35 am 07:35 Sunny 66 19 63 17 88 88 Calm 29.80 1009 10 16 0.00 0.00
7:55 am 07:55 Sunny 66 19 63 17 88 88 NNW 5 7 29.80 1009 10 16 0.00 0.00
8:15 am 08:15 Sunny 66 19 64 18 94 94 NNW 7 11 29.80 1009 10 16 0.00 0.00
8:35 am 08:35 Sunny 68 20 64 18 88 88 NW 5 7 29.83 1010 10 16 0.00 0.00
8:55 am 08:55 Mostly Cloudy 70 21 64 18 83 83 W 5 7 29.83 1010 10 16 0.00 0.00
9:15 am 09:15 Cloudy 70 21 64 18 83 83 WNW 5 7 29.83 1010 10 16 0.00 0.00
9:35 am 09:35 Cloudy 70 21 64 18 83 83 WNW 6 9 29.83 1010 10 16 0.00 0.00
9:55 am 09:55 Cloudy 72 22 64 18 78 78 NW 6 9 29.83 1010 10 16 0.00 0.00
10:15 am 10:15 Cloudy 72 22 64 18 78 78 WNW 7 11 29.83 1010 10 16 0.00 0.00
10:35 am 10:35 Mostly Cloudy 73 23 64 18 74 74 WNW 5 7 29.80 1009 10 16 0.00 0.00
10:55 am 10:55 Mostly Cloudy 73 23 64 18 74 74 NW 3 6 29.80 1009 10 16 0.00 0.00
11:15 am 11:15 Mostly Cloudy 75 24 66 19 74 74 NW 6 9 29.80 1009 10 16 0.00 0.00
11:35 am 11:35 Mostly Cloudy 77 25 66 19 69 69 NW 3 6 29.80 1009 10 16 0.00 0.00
11:55 am 11:55 Cloudy 77 25 66 19 69 69 NNW 5 7 29.80 1009 10 16 0.00 0.00
12:15 pm 12:15 Mostly Cloudy 77 25 66 19 69 69 N 5 7 29.80 1009 10 16 0.00 0.00
12:35 pm 12:35 Mostly Cloudy 77 25 66 19 69 69 Calm 29.80 1009 10 16 0.00 0.00
12:55 pm 12:55 Partly Cloudy 79 26 68 20 70 70 NE 7 11 29.80 1009 10 16 0.00 0.00
1:15 pm 13:15 Mostly Cloudy 79 26 66 19 65 65 E 3 6 29.77 1008 10 16 0.00 0.00
1:35 pm 13:35 Mostly Sunny 79 26 68 20 70 70 ESE 5 7 29.77 1008 10 16 0.00 0.00
1:55 pm 13:55 Mostly Cloudy 81 27 68 20 66 66 ESE 5 7 29.74 1007 10 16 0.00 0.00
2:15 pm 14:15 Cloudy 79 26 68 20 70 70 SE 5 7 29.77 1008 10 16 0.00 0.00
2:35 pm 14:35 Cloudy 79 26 68 20 70 70 Calm 29.77 1008 10 16 0.00 0.00
2:55 pm 14:55 Cloudy 79 26 68 20 70 70 Calm 29.77 1008 10 16 0.00 0.00
3:15 pm 15:15 Cloudy 79 26 68 20 70 70 ESE 6 9 29.77 1008 10 16 0.00 0.00
3:35 pm 15:35 Cloudy 81 27 70 21 70 70 Calm 29.74 1007 10 16 0.00 0.00
3:55 pm 15:55 Cloudy 81 27 68 20 66 66 Calm 29.74 1007 10 16 0.00 0.00
4:15 pm 16:15 Cloudy 81 27 70 21 70 70 E 3 6 29.74 1007 10 16 0.00 0.00
4:35 pm 16:35 Cloudy 81 27 70 21 70 70 E 5 7 29.74 1007 10 16 0.00 0.00
4:55 pm 16:55 Cloudy 81 27 70 21 70 70 ENE 3 6 29.74 1007 10 16 0.00 0.00
5:15 pm 17:15 Cloudy 81 27 70 21 70 70 NE 6 9 29.74 1007 10 16 0.00 0.00
5:35 pm 17:35 Partly Cloudy 81 27 70 21 70 70 NNE 7 11 29.74 1007 10 16 0.00 0.00
5:55 pm 17:55 Sunny 81 27 70 21 70 70 NE 8 13 29.74 1007 10 16 0.00 0.00
6:15 pm 18:15 Sunny 81 27 70 21 70 70 ENE 10 17 29.74 1007 10 16 0.00 0.00
6:35 pm 18:35 Sunny 81 27 70 21 70 70 E 8 13 29.74 1007 10 16 0.00 0.00
6:55 pm 18:55 Sunny 81 27 70 21 70 70 E 10 17 29.74 1007 10 16 0.00 0.00
7:15 pm 19:15 Sunny 81 27 70 21 70 70 E 10 17 29.74 1007 10 16 0.00 0.00
7:35 pm 19:35 Sunny 79 26 70 21 74 74 E 7 11 29.77 1008 10 16 0.00 0.00
7:55 pm 19:55 Sunny 79 26 70 21 74 74 E 7 11 29.77 1008 10 16 0.00 0.00
8:15 pm 20:15 Sunny 79 26 70 21 74 74 ESE 6 9 29.77 1008 10 16 0.00 0.00
8:35 pm 20:35 Sunny 77 25 70 21 79 79 ESE 6 9 29.77 1008 10 16 0.00 0.00
8:55 pm 20:55 Mostly Cloudy 75 24 70 21 83 83 E 5 7 29.77 1008 10 16 0.00 0.00
9:15 pm 21:15 Mostly Cloudy 75 24 70 21 83 83 ENE 5 7 29.77 1008 10 16 0.00 0.00
9:35 pm 21:35 Mostly Clear 73 23 70 21 89 89 NE 5 7 29.77 1008 10 16 0.00 0.00
9:55 pm 21:55 Clear 73 23 70 21 89 89 NNE 3 6 29.77 1008 10 16 0.00 0.00
10:15 pm 22:15 Clear 73 23 70 21 89 89 N 3 6 29.77 1008 10 16 0.00 0.00
10:35 pm 22:35 Clear 73 23 70 21 89 89 Calm 29.77 1008 10 16 0.00 0.00
10:55 pm 22:55 Clear 72 22 70 21 94 94 Calm 29.83 1010 10 16 0.00 0.00
11:15 pm 23:15 Clear 73 23 70 21 89 89 Calm 29.80 1009 10 16 0.00 0.00
11:35 pm 23:35 Mostly Cloudy 73 23 70 21 89 89 Calm 29.77 1008 10 16 0.00 0.00
11:55 pm 23:55 Mostly Clear 73 23 70 21 89 89 Calm 29.80 1009 10 16 0.00 0.00

Powered by AerisWeather